Temp
10 9 9 9 9 9 9 9 9 10 9 9 10 11 12 13 14 15 15 15 15 15 15 16 16 17 17 16 17 17 17 16 16 16 16 17 17 17 19 19 19 19 19
7 9 9 8 8 8 8 8 8 8 8 8 8 9 10 11 13 14 14 14 14 14 14 14 14 15 16 16 16 17 16 16 16 17 15 15 16 16 17 18 19 19 19
7 7 8 8 8 7 7 7 7 7 7 8 8 8 9 10 11 12 13 14 14 14 13 14 14 14 15 15 16 16 16 17 16 17 17 15 16 16 17 18 18 18 18
7 7 8 8 7 7 6 6 6 6 6 8 8 8 8 9 11 12 13 13 13 13 13 13 13 14 14 15 15 16 16 16 17 15 16 18 17 14 15 16 17 18 18
6 7 7 8 7 7 7 6 6 5 5 7 8 8 8 9 11 11 12 12 12 12 12 12 13 13 13 14 15 15 16 16 16 16 16 15 15 16 14 14 15 16 16
7 7 8 8 7 7 7 6 5 5 5 6 7 8 8 9 9 10 10 11 11 11 12 12 12 12 12 13 14 15 15 16 15 16 16 16 16 14 14 13 13 15 16
7 6 6 6 7 7 7 6 6 5 5 5 5 6 7 8 9 9 10 10 10 10 11 11 11 12 12 13 13 14 14 15 16 16 16 16 16 16 16 15 13 13 16
6 6 6 7 7 6 6 6 5 5 5 4 4 5 5 6 8 8 9 10 10 10 10 11 11 11 12 12 13 13 14 14 15 16 15 15 15 16 16 16 15 13 12
7 6 7 8 7 7 6 5 5 5 4 4 3 3 4 4 5 7 8 9 10 10 10 10 10 11 11 12 13 13 13 14 15 15 16 15 15 15 15 15 15 15 15
7 6 7 7 7 6 5 5 4 4 4 4 3 3 2 2 4 5 7 8 10 10 10 10 10 10 11 12 12 12 13 14 14 15 15 15 15 15 15 15 14 14 15
7 6 6 7 7 6 5 5 4 3 3 2 3 2 1 2 2 4 6 8 10 10 10 10 10 10 10 11 12 12 13 13 14 14 15 15 15 15 14 15 14 13 13
7 6 6 7 6 6 5 4 4 3 2 2 2 1 1 1 2 3 5 8 9 11 10 10 10 10 10 11 11 12 13 13 13 14 14 14 14 14 14 14 13 13 13
7 6 6 5 5 5 4 3 3 3 2 2 2 1 1 1 2 4 6 8 8 9 10 10 10 11 11 11 11 13 13 13 14 14 14 13 14 13 13 13 13 13 13
7 6 5 5 5 5 4 3 2 2 2 1 1 1 1 1 3 4 6 7 8 10 11 10 10 11 12 12 11 13 14 14 14 14 14 14 14 14 13 13 13 13 13
8 7 6 4 5 4 3 3 2 2 2 1 1 1 1 1 3 5 6 7 8 8 10 10 10 9 9 9 12 13 13 14 14 14 14 15 14 14 14 13 13 13 13
8 7 6 5 4 4 3 2 2 2 2 1 1 1 1 1 2 3 4 4 5 5 6 7 7 7 7 7 9 10 11 12 12 13 14 14 14 14 14 13 13 13 12
8 7 6 5 4 4 3 2 2 2 1 1 1 1 1 1 1 1 2 2 2 3 2 3 4 4 4 4 7 9 10 10 10 11 12 13 14 13 13 13 13 13 12
7 6 5 5 5 4 3 3 2 2 1 1 1 1 1 1 1 1 1 1 1 1 1 1 1 1 2 3 5 8 10 10 9 10 10 10 10 11 11 11 11 11 11
7 7 7 6 5 4 3 2 2 1 1 1 1 1 1 1 1 1 1 1 0 0 0 0 0 0 1 2 3 8 9 7 8 8 8 8 7 8 9 10 9 8 6
8 7 7 6 5 5 3 2 1 1 1 1 1 1 1 0 1 1 1 1 0 0 -0 -0 -0 0 0 1 2 4 5 4 4 3 3 3 3 4 6 6 5 3 2
9 8 6 6 6 5 3 2 1 1 1 1 1 1 0 -0 -0 0 0 0 0 0 -1 -1 -1 -1 -1 0 2 2 2 2 2 2 1 1 1 1 1 3 2 1 1
7 7 6 5 6 5 3 2 2 2 1 1 1 0 0 -0 -1 -1 -1 -1 -1 -1 -2 -2 -2 -2 -2 -0 1 1 1 1 0 0 -0 -0 -0 0 -0 -0 -0 0 0
7 8 6 6 5 5 4 3 3 2 1 1 1 0 -0 -0 -1 -1 -1 -2 -2 -2 -2 -3 -3 -2 -1 -1 -1 0 -0 -1 -1 -1 -1 -2 -2 -2 -2 -2 -2 -1 -2
7 8 6 4 4 5 4 4 3 2 1 1 1 0 -0 -1 -1 -2 -2 -2 -2 -3 -3 -3 -3 -2 -2 -1 -1 -1 -2 -2 -3 -3 -3 -3 -3 -3 -4 -4 -4 -4 -4
7 7 6 5 5 6 5 4 3 2 1 1 0 -0 -0 -1 -2 -2 -2 -2 -2 -2 -3 -3 -3 -2 -2 -1 -1 -2 -2 -2 -3 -3 -3 -4 -4 -4 -4 -4 -5 -5 -5
7 7 6 5 6 6 5 4 3 2 2 1 0 0 -1 -1 -2 -2 -2 -2 -2 -2 -2 -2 -3 -3 -2 -2 -2 -3 -3 -3 -4 -4 -4 -5 -5 -5 -5 -5 -5 -5 -5
Height
821 817 813 810 806 803 799 796 792 789 786 783 781 777 774 774 773 773 774 775 775 775 776 777 778 779 780 781 782 784 785 786 787 791 792 792 793 795 795 796 799 801 803
818 813 810 808 805 802 798 794 790 786 782 778 774 772 769 766 766 766 766 766 767 768 768 768 769 771 773 774 775 777 779 780 783 785 785 786 788 787 790 790 792 794 796
818 813 809 806 803 800 796 792 787 783 778 773 768 765 763 760 759 759 758 758 758 759 760 761 761 763 765 765 767 769 771 773 775 775 779 784 782 780 781 783 785 788 789
815 812 807 803 801 798 793 788 783 778 773 767 763 760 757 754 751 749 749 750 750 750 751 752 754 755 755 756 758 761 762 766 766 769 770 771 772 777 779 776 778 781 782
814 809 806 803 799 795 789 784 779 774 769 763 759 754 750 748 744 743 742 742 743 742 743 745 747 746 747 748 750 752 754 756 759 760 763 765 766 769 771 773 772 774 776
810 807 803 799 796 793 790 784 777 772 766 762 755 751 747 743 742 738 737 736 735 735 736 737 738 740 739 739 741 744 747 748 750 752 754 755 758 762 765 768 768 767 768
807 803 799 796 792 789 784 779 772 768 765 760 753 749 744 739 736 733 729 728 728 729 729 729 729 730 731 731 733 735 738 740 742 744 746 749 750 752 755 758 761 762 763
804 799 793 790 789 786 781 776 770 768 764 759 752 746 741 736 730 727 724 722 721 721 721 722 723 723 723 723 726 726 728 733 734 736 739 741 743 746 747 750 754 758 758
796 793 789 787 785 782 779 775 770 765 760 755 749 742 736 730 726 721 718 716 715 715 715 717 717 717 717 715 718 717 719 723 726 728 731 734 737 739 741 743 746 748 751
792 789 787 786 784 781 778 773 768 764 758 753 747 739 732 726 721 716 712 711 710 709 710 711 711 710 709 709 712 711 711 715 717 720 723 727 729 732 734 736 739 742 744
788 786 785 782 780 777 774 770 766 760 755 750 744 735 729 723 717 713 707 705 705 705 705 705 704 704 703 704 703 705 705 708 709 712 715 720 723 725 727 729 730 734 738
783 782 781 779 777 775 772 768 763 758 753 748 741 734 726 719 713 708 705 702 701 700 700 699 698 698 697 697 698 699 699 701 703 705 708 712 716 718 721 723 724 727 730
780 778 777 777 775 773 769 765 761 756 751 746 740 732 724 717 711 705 701 699 698 695 693 692 692 692 691 691 692 693 694 694 697 699 702 704 709 711 715 718 719 721 723
777 775 775 774 772 770 767 764 759 753 747 743 737 730 723 716 710 704 698 695 694 691 688 688 688 688 685 688 687 686 686 688 690 693 697 699 701 704 707 711 713 716 717
772 772 771 769 768 766 763 761 757 751 747 742 734 729 724 717 710 704 699 696 693 689 686 685 686 686 687 688 685 683 684 685 686 688 690 693 695 698 700 703 707 712 712
768 768 767 766 765 764 761 758 754 750 746 742 735 729 724 718 712 706 701 697 693 691 689 686 685 684 684 682 681 680 681 682 682 684 685 687 690 692 694 696 699 702 704
763 763 763 762 760 760 758 755 752 748 745 740 735 730 724 719 713 708 703 699 696 693 690 688 686 684 682 680 678 677 678 678 678 679 680 682 684 687 688 690 692 694 695
760 759 759 759 758 756 754 752 749 747 744 739 735 730 725 720 715 711 706 702 699 695 692 691 689 687 685 681 676 673 673 673 674 676 677 679 680 681 683 685 687 687 690
754 754 755 756 756 754 753 751 748 745 742 738 734 730 725 721 717 714 709 706 702 698 695 693 691 688 685 680 672 667 667 669 672 674 675 677 677 677 678 681 681 683 685
749 750 751 751 752 752 751 749 747 743 740 737 733 729 726 722 717 714 711 707 705 703 699 696 692 687 685 681 674 667 667 670 672 674 676 678 679 677 677 676 677 680 685
742 744 745 745 745 746 747 746 745 742 739 736 733 729 726 722 719 715 712 709 706 704 701 699 697 693 689 684 678 673 672 675 676 676 680 682 683 682 680 677 679 684 687
737 737 738 737 737 739 741 740 739 737 735 734 732 730 726 723 720 717 714 711 709 706 704 702 699 696 693 690 685 681 679 679 678 681 683 682 682 682 685 681 682 685 685
734 732 732 732 733 732 732 732 732 733 734 732 730 728 726 723 721 718 716 714 712 710 707 705 703 700 697 694 692 689 686 685 686 687 689 688 687 689 690 689 689 690 690
732 731 729 727 726 727 727 727 728 727 728 728 727 726 724 723 721 719 717 715 713 712 711 709 706 703 700 698 696 694 692 691 690 690 691 692 693 694 694 693 694 694 695
727 724 723 723 720 721 722 722 723 724 723 723 723 724 724 723 722 721 718 715 714 713 711 710 709 707 704 702 700 698 695 694 694 694 694 694 695 697 697 698 697 697 697
719 721 719 717 716 717 717 717 718 719 719 719 718 719 719 719 719 718 718 718 716 715 713 711 708 707 706 705 704 701 699 698 696 695 696 698 699 699 700 701 701 700 700
Wind_Speed
11 17 21 25 26 27 27 27 28 28 29 30 30 33 34 35 34 37 36 36 35 37 40 40 37 37 35 31 34 33 28 25 30 22 20 27 31 31 39 39 40 37 35
8 16 19 21 24 27 28 29 28 29 30 30 30 28 29 32 34 33 34 34 34 33 38 39 35 35 34 33 33 34 27 26 27 19 4 4 14 25 31 36 39 41 38
8 9 16 21 24 24 26 26 27 26 29 30 30 29 28 31 32 32 33 34 35 33 34 37 36 33 33 33 32 33 32 26 26 33 16 2 4 5 20 33 36 40 40
7 6 13 19 22 24 26 26 27 28 25 27 24 27 25 22 25 30 33 36 37 36 35 36 38 36 33 33 34 34 34 31 26 19 30 26 7 4 2 16 32 38 39
7 7 11 16 21 26 29 29 31 30 29 27 25 23 25 28 32 29 32 34 35 33 34 36 37 37 35 35 32 34 35 33 31 27 19 22 18 13 3 3 6 27 32
7 7 13 16 19 21 22 23 22 25 29 29 29 23 22 26 25 28 28 32 33 33 34 33 36 36 35 34 35 34 36 36 33 31 28 24 13 13 6 2 4 9 20
7 7 8 12 15 20 25 26 28 29 28 28 28 27 27 22 25 28 27 27 28 30 32 31 31 33 34 35 35 35 35 37 36 34 31 30 29 25 26 20 6 5 18
7 8 9 14 18 20 24 27 29 28 27 26 27 26 26 24 24 25 28 27 28 29 31 30 31 33 32 34 35 36 36 35 36 36 35 32 30 32 29 25 18 5 5
8 8 10 17 20 22 23 24 25 26 28 29 28 29 28 28 26 27 26 30 28 28 27 30 30 31 31 31 34 34 33 37 38 36 37 34 30 31 31 32 27 18 9
7 7 9 16 18 21 22 25 25 24 25 27 26 30 32 29 28 28 25 26 27 26 27 29 29 28 28 30 32 31 34 35 35 33 34 33 32 32 33 33 30 26 20
8 6 9 15 16 20 23 26 25 24 24 25 25 30 29 27 25 24 23 24 26 26 25 26 27 30 29 29 28 32 31 31 34 34 33 33 34 30 31 32 28 27 26
8 6 10 14 16 19 22 24 26 26 25 25 27 28 28 26 23 21 20 17 20 25 28 28 26 26 23 23 28 31 29 31 31 33 31 31 31 33 31 29 26 26 27
8 7 7 10 13 18 20 22 22 24 26 23 25 27 25 24 23 21 19 18 17 19 22 25 24 24 20 22 25 30 30 31 31 30 31 32 31 27 25 29 27 28 26
8 6 5 8 12 16 18 20 20 23 24 24 23 25 26 24 24 23 17 14 15 17 15 18 19 18 6 22 25 27 28 29 30 31 32 30 30 30 30 26 27 26 24
7 7 6 5 11 16 17 18 18 23 22 23 22 23 26 25 23 21 15 9 8 7 6 7 6 5 10 12 17 18 21 25 28 28 30 29 29 28 30 30 30 25 23
8 7 6 6 9 12 15 16 15 18 19 20 22 23 24 26 24 20 15 12 13 12 9 7 6 6 4 11 12 14 17 20 23 25 27 26 27 28 28 29 32 31 26
8 7 6 8 9 10 11 12 13 14 15 16 18 20 21 22 22 19 17 16 16 14 16 15 12 11 12 18 15 15 16 16 17 21 25 25 24 25 25 25 28 31 34
8 7 8 11 11 9 9 8 8 9 12 14 15 17 18 18 20 19 18 17 18 18 16 16 15 14 16 21 17 18 16 14 13 14 12 14 16 18 19 18 21 20 19
8 11 11 11 11 11 9 9 7 7 9 12 14 14 13 13 13 15 17 16 16 16 17 17 18 19 22 26 19 17 16 13 8 7 6 7 7 9 15 16 12 10 11
12 12 12 11 12 12 10 9 9 6 7 9 11 12 10 10 9 10 9 10 14 15 13 14 17 19 23 26 19 10 12 18 21 22 21 18 14 11 12 15 16 18 10
16 16 14 15 14 11 9 11 10 9 7 6 8 10 9 10 7 6 7 8 8 9 10 11 14 15 18 22 21 16 22 18 20 20 21 19 18 20 20 19 18 15 11
16 18 19 19 15 13 11 12 12 8 6 5 5 6 8 9 9 6 7 8 7 8 10 11 14 17 17 18 20 21 20 17 21 20 19 19 18 18 18 20 17 12 11
15 20 22 21 17 16 16 15 13 9 7 5 4 3 4 5 7 9 10 10 10 10 10 11 12 14 18 18 15 16 17 18 21 19 17 17 17 17 20 19 17 16 15
13 18 19 19 21 20 19 19 13 9 7 7 6 4 3 1 4 6 8 11 11 9 10 9 11 12 15 16 15 13 12 12 16 16 17 17 17 16 15 17 19 18 15
17 14 17 21 26 21 22 19 16 12 11 10 8 7 5 4 1 3 6 8 9 8 7 7 9 8 9 11 10 11 10 12 12 16 16 16 15 13 13 14 14 14 15
15 16 17 20 27 23 22 21 18 17 15 14 13 11 10 9 8 6 4 3 5 5 6 5 6 7 7 6 8 8 9 9 8 14 13 12 11 11 10 9 9 10 11
Wind_Direction
316 326 334 337 333 334 332 330 326 322 316 304 294 284 274 274 274 269 268 269 270 265 261 262 261 260 254 248 246 240 233 233 229 224 232 232 236 237 236 232 229 234 238
314 323 330 334 332 329 330 327 321 320 317 300 286 278 274 274 271 271 270 268 266 266 263 258 256 257 252 247 242 237 232 237 223 224 202 225 226 229 234 232 231 235 235
300 317 337 339 337 334 330 324 321 317 312 310 291 281 275 270 269 264 261 261 263 265 260 259 253 250 253 245 241 236 229 232 230 232 214 188 239 172 225 234 238 234 235
312 304 340 337 337 334 333 330 325 321 318 323 305 274 261 259 260 267 269 266 264 263 261 259 257 252 246 247 243 237 233 229 231 233 232 227 175 193 234 226 229 234 236
292 308 325 329 336 341 340 338 335 328 328 326 324 294 266 267 268 264 263 263 262 262 264 264 259 256 249 246 247 238 236 232 233 225 220 224 221 218 155 206 222 228 232
280 294 324 332 325 322 324 330 332 333 334 330 327 328 288 279 273 271 261 258 261 264 264 262 262 259 254 251 245 245 240 237 232 230 231 222 207 204 187 182 208 216 229
291 306 296 298 315 324 331 334 340 337 336 334 330 324 320 309 291 277 264 259 257 255 258 260 261 258 255 251 248 245 242 243 239 238 234 236 231 227 216 221 196 207 224
269 263 301 317 324 327 329 328 329 325 329 330 330 327 321 316 308 287 274 261 253 254 261 261 261 260 259 255 250 243 242 242 243 240 236 237 238 234 222 216 212 225 222
270 278 306 331 330 330 323 323 319 319 323 326 329 325 321 320 309 306 284 275 273 261 264 264 262 262 260 257 251 243 239 239 242 242 241 242 239 239 233 227 223 215 231
291 300 307 307 324 325 330 331 328 320 320 317 321 322 318 316 312 307 300 276 280 274 267 262 263 263 267 258 251 241 240 239 240 241 244 244 241 244 245 239 228 227 231
286 292 290 309 319 330 338 336 330 330 325 326 319 320 317 314 312 309 310 286 282 284 277 271 266 269 269 270 256 246 241 240 242 241 242 246 247 244 242 243 236 228 228
286 287 284 306 324 333 337 338 339 330 330 329 323 318 317 318 314 314 310 304 288 283 280 277 274 272 263 274 262 248 242 241 239 244 243 243 247 244 241 234 222 221 223
279 273 297 304 326 328 334 340 341 333 338 326 328 325 324 323 320 320 312 304 299 293 281 276 270 268 259 271 269 252 252 247 247 244 244 241 240 234 236 237 234 235 237
264 273 284 289 319 326 335 336 343 342 349 344 331 331 330 333 333 328 315 309 312 302 286 287 271 249 269 276 282 252 243 243 242 243 245 245 241 236 229 230 234 234 235
267 268 270 291 316 323 333 342 347 348 353 349 342 339 339 343 353 354 342 331 356 1 311 294 266 266 243 249 266 274 264 252 246 243 244 243 243 241 238 231 233 243 243
256 257 250 279 297 311 326 336 345 349 355 354 349 352 352 356 357 6 5 6 15 27 27 25 360 1 344 305 289 276 268 259 252 252 246 244 247 248 248 249 245 244 233
251 253 250 256 275 292 317 328 338 345 349 354 359 8 2 1 3 11 19 16 25 25 31 30 20 8 354 343 311 286 270 266 262 262 257 252 250 253 255 253 250 251 253
247 246 241 255 269 275 299 312 331 346 349 354 357 7 16 11 12 18 21 30 38 43 37 32 29 24 8 353 324 296 283 275 268 265 260 258 251 251 252 250 246 248 249
242 244 248 255 270 277 296 302 317 340 347 352 351 359 15 21 17 19 23 31 40 42 42 41 35 30 21 4 342 301 272 235 208 193 182 183 205 242 243 232 224 173 136
247 240 241 248 258 275 287 292 299 315 334 342 344 352 4 14 23 24 20 19 36 38 31 34 38 35 25 18 21 71 129 114 102 102 91 79 76 94 146 147 135 101 90
244 241 231 234 248 255 265 280 293 295 314 327 335 353 3 12 10 30 42 40 38 44 42 35 30 32 31 25 36 66 84 87 89 83 76 73 71 68 73 99 92 90 103
241 234 228 234 241 236 240 260 267 281 292 311 326 344 3 14 19 25 45 52 54 44 40 47 45 37 31 33 46 57 73 91 83 84 88 80 77 72 70 78 88 104 105
260 247 235 241 241 231 229 241 264 266 278 286 290 313 5 26 36 47 51 50 48 50 41 35 34 31 44 46 45 61 75 84 89 87 86 83 77 77 75 70 76 86 89
272 271 243 234 243 239 234 243 252 247 244 249 254 247 238 69 70 68 66 62 52 49 44 29 27 22 28 38 49 66 76 88 104 101 91 88 82 78 76 73 73 74 70
282 272 250 240 245 247 241 237 236 234 236 235 237 235 233 234 190 80 74 79 66 56 64 54 41 30 21 27 34 47 73 93 96 100 94 81 72 68 62 59 55 47 42
276 277 267 257 257 251 245 238 230 226 229 229 225 223 222 220 216 197 162 99 76 68 69 68 62 61 41 35 40 50 68 84 103 94 84 79 73 69 61 50 43 39 33